Weather in Nizhnie Timersyany

Russia / Ulyanovsk Oblast     54°32′59″N   47°45′43″E
В апреле 2022 года жителям России запретили посещать сайт meteo.paraplan.net по решению Генеральной прокуратуры. Аудитория сайта уменьшилась в 10 раз. Владельцы сайта не видят смысла в поддержке погодного сервера в таких условиях. Сайт будет закрыт в октябре.
temp.,
°C
wind,
m/s
gust,
m/s
humid.,
%
clouds,
%
prec.,
mm/h
press.,
hPa
HPBL,
m
30 september, fri
fri3001:00+10n3596100 0.0 1016137
04:00+11nne2397100 0.0 1018131
07:00+11e2398100 0.0 1020189
10:00+11ese3393100 0.1 1021286
13:00+12ese3387100 0.0 1022367
16:00+12ese3384100 0.0 1023381
19:00+11ese3590100 0.0 1024214
22:00+11se3589100 0.0 1024194
1 october, sat
sat101:00+11se3588100 0.0 1023154
04:00+11sse3588100 0.0 1023137
07:00+10sse359314 0.0 102389
10:00+13sse577850 0.0 1023384
13:00+16s566785 0.0 1022759
16:00+17s566458 0.0 10211007
19:00+14sse41079100 0.0 1020234
22:00+13sse51280100 0.0 1018294
2 october, sun
sun201:00+13sse51381100 0.0 1017367
04:00+14s6147842 0.0 1015382
07:00+13s6158072 0.0 1014412
10:00+16s8157486 0.1 1013627
13:00+19ssw71267100 0.1 1012873
16:00+19ssw6106877 0.1 10121162
19:00+16s3783100 0.3 1012140
22:00+15sse3993100 2.4 1012258
3 october, mon
mon301:00+14sse5119393 0.9 1012342
04:00+15s61291100 2.1 1012384
07:00+14sse6148923 0.3 1011407
10:00+16sse71575100 0.3 1012541
13:00+18s91759100 0.0 1013881
16:00+18s91753100 0.0 1013967
19:00+17s91750100 0.0 1015967
22:00+16sse101845100 0.0 1015961
4 october, tue
tue401:00+15sse91843100 0.0 1016874
04:00+14sse81542100 0.0 1017848
07:00+12sse81540100 0.0 1018700
10:00+13sse81540100 0.0 1019792
13:00+13s81546100 0.0 1021971
16:00+12s61459100 0.7 1022832
19:00+11s71477100 0.5 1024860
22:00+11s71467100 0.8 1024906